Weather History for Haleyville, AL

Change the Weather History Date:

Monday, August 11, 2014

  Actual Average (KJFX) Record (KJFX)
Temperature  
Mean Temperature 78 °F -  
Max Temperature 86 °F 88 °F 100 °F (1980)
Min Temperature 69 °F 66 °F 57 °F (1967)
Cooling Degree Days 12    
Growing Degree Days 28 (Base 50)    
Moisture  
Dew Point 73 °F    
Average Humidity 94    
Maximum Humidity 100    
Minimum Humidity 69    
Precipitation  
Precipitation 0.16 in - - ()
Sea Level Pressure  
Sea Level Pressure 30.02 in    
Wind  
Wind Speed 2 mph (WSW)    
Max Wind Speed 13 mph    
Max Gust Speed 31 mph    
Visibility 6 miles    
Events Fog , Rain , Thunderstorm    
Averages and records for this station are not official NWS values.
T = Trace of Precipitation, MM = Missing Value Source: NWS Daily Summary

Daily Weather History Graph

Daily Weather History Graph

Search for Another Location

Airport:

Trip Planner

Search our weather history database for the weather conditions in past years. The results will help you decide how hot, cold, wet, or windy it might be!

Date:

Astronomy

Aug. 11, 2014 Rise Set
Actual Time 6:08 AM CDT 7:42 PM CDT
Civil Twilight 5:41 AM CDT 8:08 PM CDT
Nautical Twilight 5:09 AM CDT 8:40 PM CDT
Astronomical Twilight 4:35 AM CDT 9:14 PM CDT
Moon 8:16 PM CDT (8/11) 7:08 AM CDT (8/11)
Length of Visible Light 14h 26m
Length of Day
13h 33m
Full, 99% of the Moon is Illuminated
Aug 11
Full
Aug 17
Last Quarter
Aug 25
New
Sep 2
First Quarter
Sep 8
Full

Hourly Weather History & Observations

Time (CDT) Temp. Heat Index Dew Point Humidity Pressure Visibility Wind Dir Wind Speed Gust Speed Precip Events Conditions
12:56 AM 72.9 °F - 72.9 °F 100% 30.07 in 7.0 mi Calm Calm - N/A   Clear
3:56 AM 72.9 °F - 72.9 °F 100% 30.04 in 4.0 mi Calm Calm - N/A   Clear
4:20 AM 71.6 °F - 71.6 °F 100% 30.01 in 3.0 mi Calm Calm - N/A   Scattered Clouds
4:29 AM 73.4 °F - 73.4 °F 100% 30.01 in 3.0 mi Calm Calm - N/A   Mostly Cloudy
4:36 AM 73.4 °F - 73.4 °F 100% 30.02 in 2.5 mi Calm Calm - N/A   Mostly Cloudy
4:59 AM 73.4 °F - 73.4 °F 100% 30.02 in 1.0 mi Calm Calm - N/A   Overcast
5:03 AM 73.4 °F - 73.4 °F 100% 30.02 in 0.5 mi Calm Calm - N/A Fog Fog
5:15 AM 71.6 °F - 71.6 °F 100% 30.02 in 0.2 mi Calm Calm - N/A Fog Fog
5:27 AM 71.6 °F - 71.6 °F 100% 30.02 in 0.5 mi Calm Calm - N/A Fog Fog
5:34 AM 71.6 °F - 71.6 °F 100% 30.02 in 0.8 mi Calm Calm - N/A   Overcast
5:49 AM 71.6 °F - 71.6 °F 100% 30.02 in 1.2 mi Calm Calm - N/A   Overcast
5:56 AM 72.0 °F - 72.0 °F 100% 30.06 in 1.5 mi Calm Calm - N/A   Overcast
6:05 AM 71.6 °F - 71.6 °F 100% 30.02 in 1.0 mi Calm Calm - N/A   Overcast
6:13 AM 71.6 °F - 71.6 °F 100% 30.02 in 0.5 mi WSW 3.5 mph - N/A Fog Fog
6:21 AM 71.6 °F - 71.6 °F 100% 30.02 in 0.2 mi Calm Calm - N/A Fog Fog
6:56 AM 72.0 °F - 72.0 °F 100% 30.06 in 0.2 mi Calm Calm - N/A Fog Fog
7:11 AM 71.6 °F - 71.6 °F 100% 30.03 in 0.5 mi Calm Calm - N/A Fog Fog
7:17 AM 71.6 °F - 71.6 °F 100% 30.03 in 1.0 mi Calm Calm - N/A   Overcast
7:22 AM 71.6 °F - 71.6 °F 100% 30.03 in 1.5 mi Calm Calm - N/A   Overcast
7:33 AM 71.6 °F - 71.6 °F 100% 30.03 in 2.5 mi Calm Calm - N/A   Overcast
7:41 AM 71.6 °F - 71.6 °F 100% 30.03 in 4.0 mi Calm Calm - N/A   Overcast
7:56 AM 72.9 °F - 72.9 °F 100% 30.08 in 7.0 mi Calm Calm - N/A   Mostly Cloudy
8:13 AM 73.4 °F - 73.4 °F 100% 30.05 in 10.0 mi Calm Calm - N/A   Scattered Clouds
8:56 AM 75.9 °F - 72.9 °F 90% 30.08 in 10.0 mi Calm Calm - N/A   Scattered Clouds
9:56 AM 81.0 °F 86.2 °F 73.9 °F 79% 30.08 in 10.0 mi Calm Calm - N/A   Clear
10:56 AM 84.9 °F 92.1 °F 73.9 °F 69% 30.06 in 10.0 mi SW 6.9 mph - 0.00 in   Clear
11:56 AM 86.9 °F 97.3 °F 75.9 °F 70% 30.06 in 10.0 mi SW 10.4 mph 16.1 mph N/A   Scattered Clouds
12:42 PM 73.4 °F - 69.8 °F 88% 30.05 in 2.5 mi West 12.7 mph 31.1 mph 0.02 in Rain Heavy Rain
12:47 PM 71.6 °F - 69.8 °F 94% 30.05 in 1.5 mi WSW 8.1 mph - 0.04 in Rain Heavy Rain
12:56 PM 70.9 °F - 68.9 °F 93% 30.08 in 1.5 mi WSW 5.8 mph - 0.09 in Rain , Thunderstorm Heavy Thunderstorms and Rain
1:04 PM 71.6 °F - 69.8 °F 94% 30.05 in 2.0 mi SW 5.8 mph - 0.02 in Rain , Thunderstorm Heavy Thunderstorms and Rain
1:20 PM 69.8 °F - 69.8 °F 100% 30.03 in 6.0 mi Calm Calm - 0.03 in Rain , Thunderstorm Light Thunderstorms and Rain
1:39 PM 71.6 °F - 69.8 °F 94% 30.01 in 4.0 mi WSW 4.6 mph - 0.05 in Rain Rain
1:47 PM 71.6 °F - 69.8 °F 94% 30.00 in 6.0 mi Calm Calm - 0.06 in Rain , Thunderstorm Rain
1:56 PM 72.0 °F - 70.9 °F 96% 30.03 in 10.0 mi Calm Calm - 0.06 in Rain Light Rain
2:56 PM 81.9 °F 88.9 °F 75.9 °F 82% 30.00 in 10.0 mi WSW 8.1 mph - 0.00 in   Partly Cloudy
3:56 PM 82.9 °F 90.8 °F 75.9 °F 79% 30.00 in 10.0 mi SW 8.1 mph - N/A   Scattered Clouds
4:12 PM 82.4 °F 89.5 °F 75.2 °F 79% 29.95 in 10.0 mi SW 6.9 mph - N/A   Mostly Cloudy
4:19 PM 82.4 °F 89.5 °F 75.2 °F 79% 29.95 in 10.0 mi SW 6.9 mph - N/A   Scattered Clouds
4:56 PM 81.9 °F 88.9 °F 75.9 °F 82% 29.99 in 10.0 mi SW 9.2 mph - N/A   Partly Cloudy
5:13 PM 82.4 °F 89.5 °F 75.2 °F 79% 29.95 in 10.0 mi WSW 6.9 mph - N/A   Mostly Cloudy
5:56 PM 81.0 °F 86.7 °F 74.8 °F 82% 30.00 in 10.0 mi WSW 5.8 mph - N/A   Mostly Cloudy
6:07 PM 80.6 °F 86.2 °F 75.2 °F 84% 29.96 in 10.0 mi West 4.6 mph - N/A   Mostly Cloudy
6:31 PM 80.6 °F 86.2 °F 75.2 °F 84% 29.95 in 10.0 mi West 5.8 mph - N/A   Mostly Cloudy
7:56 PM 75.9 °F - 74.8 °F 96% 29.99 in 10.0 mi Calm Calm - N/A   Clear
8:56 PM 75.9 °F - 74.8 °F 96% 30.02 in 10.0 mi Calm Calm - N/A   Mostly Cloudy
9:56 PM 75.2 °F - 75.2 °F 100% 29.99 in 10.0 mi Calm Calm - N/A   Mostly Cloudy
10:06 PM 75.2 °F - 75.2 °F 100% 29.99 in 10.0 mi SW 4.6 mph - N/A   Mostly Cloudy
10:56 PM 74.8 °F - 73.9 °F 97% 30.02 in 10.0 mi Calm Calm - N/A   Clear
11:19 PM 73.4 °F - 73.4 °F 100% 29.99 in 10.0 mi North 4.6 mph - N/A   Mostly Cloudy
11:44 PM 73.4 °F - 71.6 °F 94% 29.99 in 10.0 mi NW 5.8 mph - N/A   Overcast
11:56 PM 72.9 °F - 70.9 °F 93% 30.03 in 9.0 mi Calm Calm - 0.01 in Rain Light Rain